Content
SEND FEEDBACK

Daily
Averages
Monthly
Summary
France

RENNES, FRANCE


Home > Europe > France
Elevation: 121 feet     Latitude: 48 04N     Longitude: 001 43W

WEATHER
 
SELECT A DAY
Number of Records: 235,998;   Date Range: 7/1/96 - 7/28/14
 
SHARE

PRINT THIS DATA

[ ← Previous Day ]
WEATHER ALMANAC - MAY 12, 2013
[ Next Day → ]
[ °C ]   °F
Weather ElementAverageHighLow
Temperature52.5 °F59 °F (3:00 pm)44.6 °F (5:30 am)
Dewpoint43.7 °F48.2 °F (5:00 pm)40 °F (2:00 am)
Humidity71.9 %87 % (4:30 am)55 % (2:00 pm)
Barometer30.16 in30.22 in (2:00 pm)30.12 in (12:30 am)
Wind Speed9.6 mph15 mph (6:30 pm)
Weather ElementAverage
Visibility7.5 mi
Wind DirectionWSW (262.2 °)

Weather ElementTotal
Precipitation---
Heating Degree Days13.2 (Base 65)
Growing Degree Days1.8 (Base 50)
Averaged from 51 records on May 12, 2013
WEATHER CONDITIONS BREAKOUT
WIND DIRECTION BREAKOUT
WEATHER BY HOUR - MAY 12, 2013
[ °C ]   °F
Local TimeTemperatureDewpointHumidityBarometerVisibilityWind DirectionWind SpeedGust SpeedPrecipitationEventsConditions
12:30 AM50.0 °F42.8 °F76 %30.12 in6.2 miWest (270°)12.7 mphMostly Cloudy
1:00 AM50.0 °F41.0 °F71 %30.12 in6.2 miWest (270°)11.5 mphOvercast
1:30 AM50.0 °F41.0 °F71 %30.12 in6.2 miWest (270°)11.5 mph
2:00 AM48.0 °F40.0 °F66 %30.15 in34.0 miWest (270°)9.2 mphClear
2:00 AM48.2 °F41.0 °F76 %30.12 in6.2 miWest (270°)9.2 mph
2:30 AM48.2 °F41.0 °F76 %30.12 in6.2 miWest (260°)9.2 mphMostly Cloudy
3:00 AM48.2 °F41.0 °F76 %30.12 in6.2 miWNW (290°)9.2 mphOvercast
3:30 AM46.4 °F41.0 °F81 %30.12 in6.2 miWNW (290°)6.9 mphMostly Cloudy
4:00 AM46.4 °F41.0 °F81 %30.12 in6.2 miWest (260°)5.8 mphMostly Cloudy
4:30 AM46.4 °F42.8 °F87 %30.12 in6.2 miWest (270°)8.1 mphMostly Cloudy
5:00 AM46.4 °F41.0 °F81 %30.12 in6.2 miWest (270°)8.1 mphPartly Cloudy
5:30 AM44.6 °F41.0 °F87 %30.12 in6.2 miWest (270°)6.9 mphPartly Cloudy
6:00 AM44.6 °F41.0 °F87 %30.15 in6.2 miWest (260°)6.9 mphMostly Cloudy
6:30 AM44.6 °F41.0 °F87 %30.15 in6.2 miWest (260°)6.9 mphPartly Cloudy
7:00 AM44.6 °F41.0 °F87 %30.15 in6.2 miWest (270°)6.9 mph
7:30 AM44.6 °F41.0 °F87 %30.15 in6.2 miWest (270°)6.9 mphPartly Cloudy
8:00 AM47.0 °F43.0 °F79 %30.18 in11.0 miWest (280°)8.1 mphClear
8:00 AM46.4 °F42.8 °F87 %30.15 in6.2 miWest (280°)8.1 mph
8:30 AM48.2 °F42.8 °F82 %30.18 in6.2 miWest (270°)9.2 mph
9:00 AM50.0 °F42.8 °F76 %30.18 in6.2 miWest (270°)8.1 mphPartly Cloudy
9:30 AM51.8 °F42.8 °F71 %30.18 in6.2 miWest (280°)8.1 mph
10:00 AM53.6 °F42.8 °F67 %30.18 in6.2 miWNW (290°)11.5 mphPartly Cloudy
10:30 AM53.6 °F42.8 °F67 %30.18 in6.2 miWNW (290°)11.5 mphMostly Cloudy
11:00 AM53.6 °F42.8 °F67 %30.18 in6.2 miWNW (290°)11.5 mphMostly Cloudy
11:30 AM53.6 °F42.8 °F67 %30.18 in6.2 miWest (280°)11.5 mphMostly Cloudy
12:00 PM55.4 °F41.0 °F58 %30.18 in6.2 miWNW (290°)8.1 mphMostly Cloudy
12:30 PM55.4 °F42.8 °F63 %30.18 in6.2 miWest (260°)8.1 mphMostly Cloudy
1:00 PM55.4 °F42.8 °F63 %30.18 in6.2 miWNW (290°)5.8 mphOvercast
1:30 PM55.4 °F42.8 °F63 %30.21 in6.2 miWest (260°)10.4 mphOvercast
2:00 PM56.0 °F44.0 °F55 %30.22 in12.0 miWNW (300°)9.2 mphClear
2:00 PM55.4 °F44.6 °F67 %30.21 in6.2 miWNW (300°)9.2 mphOvercast
2:30 PM55.4 °F44.6 °F67 %30.18 in6.2 miWest (260°)8.1 mphOvercast
3:00 PM59.0 °F44.6 °F59 %30.18 in6.2 miWest (260°)5.8 mphOvercast
3:30 PM57.2 °F46.4 °F67 %30.18 in6.2 miWSW (250°)10.4 mphOvercast
4:00 PM59.0 °F46.4 °F63 %30.18 in6.2 miWSW (250°)9.2 mphOvercast
4:30 PM57.2 °F44.6 °F63 %30.18 in6.2 miWSW (250°)11.5 mphOvercast
5:00 PM59.0 °F48.2 °F67 %30.15 in6.2 miSW (230°)9.2 mphOvercast
5:30 PM59.0 °F46.4 °F63 %30.15 in6.2 miSW (230°)12.7 mphOvercast
6:00 PM59.0 °F46.4 °F63 %30.15 in6.2 miWSW (240°)11.5 mphMostly Cloudy
6:30 PM59.0 °F46.4 °F63 %30.15 in6.2 miWSW (240°)15.0 mphMostly Cloudy
7:00 PM59.0 °F46.4 °F63 %30.15 in6.2 miSW (230°)13.8 mphOvercast
7:30 PM57.2 °F46.4 °F67 %30.15 in6.2 miSW (230°)12.7 mphMostly Cloudy
8:00 PM57.0 °F46.0 °F57 %30.17 in34.0 miWSW (240°)11.5 mphClear
8:00 PM57.2 °F46.4 °F67 %30.15 in6.2 miWSW (240°)11.5 mphOvercast
8:30 PM55.4 °F46.4 °F72 %30.15 in6.2 miWSW (240°)11.5 mphOvercast
9:00 PM55.4 °F46.4 °F72 %30.15 in6.2 miSW (230°)10.4 mphOvercast
9:30 PM55.4 °F46.4 °F72 %30.15 in6.2 miSW (230°)10.4 mphOvercast
10:00 PM55.4 °F46.4 °F72 %30.18 in6.2 miSW (230°)9.2 mphOvercast
10:30 PM53.6 °F48.2 °F82 %30.18 in6.2 miWSW (240°)10.4 mphOvercast
11:00 PM53.6 °F46.4 °F77 %30.18 in6.2 miWest (260°)11.5 mphOvercast
11:30 PM53.6 °F48.2 °F82 %30.18 in6.2 miWSW (240°)11.5 mphOvercast
Hourly data recorded from LFRN, located miles away from Rennes, France







STORIES FROM OUR PARTNERS